SCP
0 0 0 0 0 0 0 0 0 0 0 0 0 0 0 0 0 0 0 0 0 0 0 0 0 0 0 0 0 0 0 0 0 0 0 0 0 0
0 0 0 0 0 0 0 0 0 0 0 0 0 0 0 0 0 0 0 0 0 0 0 0 0 0 0 0 0 0 0 0 0 0 0 0 0 0
0 0 0 0 0 0 0 0 0 0 0 0 0 0 0 0 0 0 0 0 0 0 0 0 0 0 0 0 0 0 0 0 0 0 0 0 0 0
0 0 0 0 0 0 0 0 0 0 0 0 0 0 0 0 0 0 0 0 0 0 0 0 0 0 0 0 0 0 0 0 0 0 0 0 0 0
0 0 0 0 0 0 0 0 0 0 0 0 0 0 0 0 0 0 0 0 0 0 0 0 0 0 0 0 0 0 0 0 0 0 0 0 0 0
0 0 0 0 0 0 0 0 0 0 0 0 0 0 0 0 0 0 0 0 0 0 0 0 0 0 0 0 0 0 0 0 0 0 0 0 0 0
0 0 0 0 0 0 0 0 0 0 0 0 0 0 0 0 0 0 0 0 0 0 0 0 0 0 0 0 0 0 0 0 0 0 0 0 0 0
0 0 0 0 0 0 0 0 0 0 0 0 0 0 0 0 0 0 0 0 0 0 0 0 0 0 0 0 0 0 0 0 0 0 0 0 0 0
0 0 0 0 0 0 0 0 0 0 0 0 0 0 0 0 0 0 0 0 0 0 0 0 0 0 0 0 0 0 0 0 0 0 0 0 0 0
0 0 0 0 0 0 0 0 0 0 0 0 0 0 0 0 0 0 0 0 0 0 0 0 0 0 0 0 0 0 0 0 0 0 0 0 0 0
0 0 0 0 0 0 0 0 0 0 0 0 0 0 0 0 0 0 0 0 0 0 0 0 0 0 0 0 0 0 0 0 0 0 0 0 0 0
0 0 0 0 0 0 0 0 0 0 0 0 0 0 0 0 0 0 0 0 0 0 0 0 0 0 0 0 0 0 0 0 0 0 0 0 0 0
0 0 0 0 0 0 0 0 0 0 0 0 0 0 0 0 0 0 0 0 0 0 0 0 0 0 0 0 0 0 0 0 0 0 0 0 0 0
0 0 0 0 0 0 0 0 0 0 0 0 0 0 0 0 0 0 0 0 0 0 0 0 0 0 0 0 0 0 0 0 0 0 0 0 0 0
0 0 0 0 0 0 0 0 0 0 0 0 0 0 0 0 0 0 0 0 0 0 0 0 0 0 0 0 0 0 0 0 0 0 0 0 0 0
0 0 0 0 0 0 0 0 0 0 0 0 0 0 0 0 0 0 0 0 0 0 0 0 0 0 0 0 0 0 0 0 0 0 0 0 0 0
0 0 0 0 0 0 0 0 0 0 0 0 0 0 0 0 0 0 0 0 0 0 0 0 0 0 0 0 0 0 0 0 0 0 0 0 0 0
0 0 0 0 0 0 0 0 0 0 0 0 0 0 0 0 0 0 0 0 0 0 0 0 0 0 0 0 0 0 0 0 0 0 0 0 0 0
0 0 0 0 0 0 0 0 0 0 0 0 0 0 0 0 0 0 0 0 0 0 0 0 0 0 0 0 0 0 0 0 0 0 0 0 0 0
0 0 0 0 0 0 0 0 0 0 0 0 0 0 0 0 0 0 0 0 0 0 0 0 0 0 0 0 0 0 0 0 0 0 0 0 0 0
0 0 0 0 0 0 0 0 0 0 0 0 0 0 0 0 0 0 0 0 0 0 0 0 0 0 0 0 0 0 0 0 0 0 0 0 0 0
0 0 0 0 0 0 0 0 0 0 0 0 0 0 0 0 0 0 0 0 0 0 0 0 0 0 0 0 0 0 0 0 0 0 0 0 0 0
0 0 0 0 0 0 0 0 0 0 0 0 0 0 0 0 0 0 0 0 0 0 0 0 0 0 0 0 0 0 0 0 0 0 0 0 0 0
Wind_Speed
4 4 4 3 3 4 4 4 5 5 3 3 2 2 3 3 5 4 4 7 7 6 5 5 5 4 4 4 4 3 2 2 2 2 3 3 4 4
5 6 5 4 4 4 3 3 3 5 5 3 3 4 4 5 6 4 4 8 8 8 6 5 5 4 4 4 4 3 2 1 1 1 2 2 3 3
7 7 6 5 4 3 3 3 3 4 7 4 3 4 4 3 4 4 4 5 5 8 8 7 6 5 5 4 4 3 2 2 1 1 1 2 3 3
8 8 7 6 5 4 4 4 4 4 7 8 5 3 4 4 4 5 5 6 5 9 10 8 7 7 6 6 5 4 4 3 3 3 3 4 4 5
8 9 8 7 7 6 6 5 5 5 5 6 5 3 3 3 3 3 3 3 5 8 10 9 9 9 9 8 7 6 6 5 5 5 5 5 5 6
9 9 9 9 7 6 6 6 5 5 5 5 4 3 2 3 2 2 2 2 3 5 7 8 10 11 10 10 9 8 8 8 7 7 6 6 6 7
8 8 9 11 12 8 7 5 5 4 4 4 3 3 2 2 1 1 2 1 1 2 2 4 5 5 6 9 10 11 10 10 9 8 8 8 8 8
6 5 7 9 10 11 12 10 8 5 4 3 3 3 3 2 2 1 1 1 0 0 1 2 4 4 5 5 10 13 13 12 11 10 10 9 9 9
7 6 7 9 9 6 7 9 9 10 8 5 5 4 4 3 3 3 3 2 0 2 1 2 1 2 3 5 13 14 13 13 12 11 11 10 10 10
7 7 7 8 9 7 5 6 6 7 7 6 5 5 4 4 4 3 2 1 1 2 0 1 1 1 2 3 11 14 13 13 12 12 11 11 11 10
8 9 8 8 11 10 5 5 5 4 5 6 5 3 2 2 2 3 3 2 1 1 1 1 1 1 1 2 6 13 13 13 13 12 12 12 11 9
5 7 11 9 10 10 6 5 5 3 2 1 1 1 2 2 2 1 2 2 2 2 2 2 2 2 2 2 2 4 6 10 13 14 13 13 11 5
4 4 5 8 9 9 6 4 3 3 3 2 1 1 1 1 1 1 0 1 1 2 2 2 2 2 2 3 3 2 4 4 5 7 12 15 14 9
4 4 3 5 6 6 4 4 6 5 2 1 1 1 1 1 1 0 1 1 2 3 3 2 2 2 2 3 3 3 3 3 3 4 5 8 12 14
3 2 2 3 4 3 3 5 5 3 2 2 1 1 1 0 1 2 2 3 4 5 4 4 3 3 2 3 3 3 4 4 3 3 3 3 4 5
1 2 4 5 4 4 3 3 2 1 1 2 2 1 1 1 1 1 2 2 2 3 3 4 4 4 4 4 4 4 4 3 3 3 3 3 4 4
5 3 3 3 2 2 2 1 1 1 1 2 2 2 2 2 2 1 2 3 3 3 2 2 3 4 5 5 4 4 4 4 3 3 3 4 4 4
5 4 3 1 0 1 1 1 1 2 2 2 2 2 2 2 2 2 2 2 3 3 3 3 3 3 3 3 3 3 3 3 3 3 3 3 4 5
3 3 1 1 1 1 1 2 2 2 1 2 2 2 2 3 3 3 2 3 3 3 3 3 3 3 3 4 4 4 3 4 4 4 4 3 4 5
3 2 0 0 1 1 2 2 2 1 1 1 2 2 2 3 3 3 2 3 3 4 4 4 3 2 3 4 4 5 7 5 4 5 4 4 4 5
1 0 1 1 1 1 0 0 0 1 1 1 2 2 2 2 3 3 3 4 4 4 4 4 4 5 4 3 4 5 5 9 9 6 4 4 4 4
1 1 1 1 1 1 1 1 1 1 1 2 1 1 2 2 3 4 4 4 4 4 4 4 5 4 3 4 5 6 6 5 8 12 12 9 5 4
1 1 1 2 1 1 1 1 1 2 1 1 2 2 2 3 3 4 4 4 4 5 5 4 4 4 5 5 6 5 7 6 4 4 6 12 17 18
Wind_Direction
60 70 80 85 93 101 114 129 136 138 129 148 144 143 138 138 149 151 147 153 153 152 149 140 134 134 138 135 131 125 114 96 80 58 44 38 27 20
64 70 72 81 92 106 116 106 111 127 128 144 149 151 160 163 170 168 170 167 171 170 166 159 156 156 153 150 152 152 145 131 104 65 35 14 3 359
57 69 73 78 87 95 102 101 98 108 117 117 126 145 157 159 163 178 176 177 179 181 177 175 177 175 169 169 173 176 185 198 206 241 295 307 314 321
56 62 63 69 74 80 86 96 103 106 122 128 134 151 165 174 177 188 186 180 173 181 184 186 188 187 189 194 198 202 206 212 229 248 267 281 291 299
54 55 54 56 58 63 75 80 92 103 110 125 134 145 163 181 184 200 189 167 177 175 185 195 200 200 203 206 209 210 213 220 232 243 256 269 279 287
59 58 54 53 54 59 71 72 85 95 107 119 130 144 151 181 182 181 172 191 186 174 183 190 202 208 211 213 213 215 219 225 231 240 249 257 265 271
65 71 72 69 65 62 69 64 76 88 102 114 127 130 130 142 173 208 167 180 191 155 175 192 187 201 212 221 220 221 223 226 231 237 245 251 257 262
63 70 79 66 68 73 76 71 64 70 74 86 98 97 85 64 27 34 77 87 117 288 190 241 181 193 203 196 207 214 221 226 231 236 242 248 253 258
50 49 59 57 45 49 70 73 62 54 58 73 74 73 70 46 28 28 39 45 309 251 256 284 225 204 211 193 195 208 217 224 230 236 241 246 250 255
56 56 60 47 31 24 53 68 68 53 52 62 62 59 59 34 16 3 343 338 294 283 197 273 275 240 193 182 201 208 216 223 231 238 243 247 250 255
61 49 49 48 28 27 45 64 72 71 75 79 77 76 68 48 23 357 351 4 339 318 355 323 309 309 264 211 212 213 221 227 233 240 245 249 251 257
90 75 55 44 32 30 34 46 50 36 48 89 95 233 228 227 234 279 338 356 3 351 350 352 338 342 323 289 228 203 227 239 240 243 245 248 249 244
82 76 53 33 32 30 35 44 25 334 313 270 218 190 189 187 205 217 307 31 16 330 328 358 335 333 319 309 297 248 219 223 221 237 240 242 242 225
58 65 63 27 16 9 15 1 347 335 311 332 45 40 56 52 3 359 289 275 243 252 266 276 278 289 298 302 297 291 280 252 228 225 225 228 235 235
40 30 359 331 320 302 294 317 328 328 349 20 27 24 34 180 268 277 272 264 263 258 248 233 239 263 278 280 283 287 292 282 256 244 245 227 222 220
349 298 276 281 282 295 287 271 256 346 10 354 349 340 325 311 295 308 314 303 293 285 261 242 240 244 257 265 266 275 278 279 279 266 260 267 259 235
335 297 253 233 228 227 229 193 149 90 26 6 358 345 340 341 325 320 313 306 305 304 303 284 261 249 244 243 261 273 279 282 273 272 270 273 275 269
336 296 293 300 356 36 32 50 74 59 23 355 344 341 338 327 319 314 314 316 319 316 312 306 306 305 302 283 239 257 280 287 290 290 286 278 281 275
291 281 299 14 13 12 24 38 56 72 12 329 347 344 333 328 330 330 335 335 324 316 309 305 306 310 316 313 299 252 254 274 281 283 279 274 275 272
242 263 307 42 40 26 29 31 21 13 351 346 349 331 325 324 322 321 322 325 316 309 303 299 297 294 287 284 286 278 242 239 257 265 269 270 271 271
243 214 45 33 31 26 18 134 287 314 344 316 297 297 308 313 315 318 313 308 296 291 298 294 283 278 261 272 279 277 268 237 232 239 254 268 277 280
349 41 56 18 339 312 305 291 268 254 254 267 276 294 300 301 305 305 302 300 291 291 297 292 291 292 282 280 282 282 281 274 249 249 247 233 231 245
14 337 275 238 209 239 293 342 328 312 315 324 328 319 310 302 293 289 292 297 302 306 309 309 314 312 305 299 294 294 296 294 285 271 263 248 238 243